Tracking 17155 objects as of 28-July-2015
HD Live streaming from Space Station

COSMOS 2251 DEB

Track COSMOS 2251 DEB now!
10-day predictions
COSMOS 2251 DEB is classified as:


NORAD ID: 34473
Int'l Code: 1993-036TS
Perigee: 740.8 km
Apogee: 772.3 km
Inclination: 74.0 °
Period: 99.8 minutes
Semi major axis: 7127 km
RCS: 0.0156 m2 (small)
Launch date: June 16, 1993
Source: Commonwealth of Independent States (former USSR) (CIS)

Note: This is SATELLITE DEBRIS
Your satellite tracking list
Your tracking list is empty





NASA's NSSDC Master Catalog

Two Line Element Set (TLE):
1 34473U 93036TS  15207.94807206  .00001354  00000-0  41324-3 0  9993
2 34473 074.0351 024.5911 0022156 280.6898 241.1629 14.42754018337387

Source of the keplerian elements: AFSPC

N2YO: 299